| time (UTC) | temp F | wind direction | speed knots | gust knots | rain 1hr in | rain 24hr in | rain mn in | humidity % | barometer mb |
| 20260504232132 | 55 | 211 | 9.6 | 13.0 | 0.00 | 0.00 | 0.00 | 63 | 1014.2 |
| 20260504231632 | 55 | 265 | 3.5 | 8.7 | 0.00 | 0.00 | 0.00 | 63 | 1014.1 |
| 20260504231132 | 55 | 214 | 1.7 | 8.7 | 0.00 | 0.00 | 0.00 | 62 | 1014.1 |
| 20260504230632 | 56 | 228 | 1.7 | 12.2 | 0.00 | 0.00 | 0.00 | 63 | 1014.6 |
| 20260504230133 | 56 | 254 | 8.7 | 13.9 | 0.00 | 0.00 | 0.00 | 62 | 1014.5 |
| 20260504225632 | 56 | 224 | 2.6 | 13.9 | 0.00 | 0.00 | 0.00 | 61 | 1014.4 |
| 20260504225133 | 56 | 249 | 8.7 | 13.0 | 0.00 | 0.00 | 0.00 | 61 | 1014.4 |
| 20260504224632 | 56 | 233 | 5.2 | 13.0 | 0.00 | 0.00 | 0.00 | 62 | 1014.5 |
| 20260504224132 | 56 | 251 | 6.1 | 13.9 | 0.00 | 0.00 | 0.00 | 62 | 1014.5 |
| 20260504223132 | 57 | 234 | 2.6 | 13.0 | 0.00 | 0.00 | 0.00 | 60 | 1014.2 |
| 20260504222632 | 57 | 235 | 9.6 | 11.3 | 0.00 | 0.00 | 0.00 | 60 | 1014.5 |
| 20260504222132 | 57 | 217 | 7.0 | 11.3 | 0.00 | 0.00 | 0.00 | 61 | 1014.7 |
| 20260504221632 | 56 | 225 | 6.1 | 12.2 | 0.00 | 0.00 | 0.00 | 61 | 1014.8 |
| 20260504221132 | 56 | 227 | 5.2 | 12.2 | 0.00 | 0.00 | 0.00 | 60 | 1014.8 |
| 20260504220632 | 56 | 255 | 6.1 | 13.0 | 0.00 | 0.00 | 0.00 | 61 | 1014.8 |
| 20260504215632 | 57 | 180 | 2.6 | 14.8 | 0.00 | 0.00 | 0.00 | 60 | 1015.1 |
| 20260504215132 | 58 | 253 | 7.8 | 14.8 | 0.00 | 0.00 | 0.00 | 60 | 1015.0 |
| 20260504214632 | 58 | 247 | 10.4 | 15.6 | 0.00 | 0.00 | 0.00 | 60 | 1015.1 |
| 20260504214131 | 58 | 224 | 1.7 | 15.6 | 0.00 | 0.00 | 0.00 | 61 | 1015.1 |
| 20260504213631 | 58 | 217 | 2.6 | 14.8 | 0.00 | 0.00 | 0.00 | 61 | 1015.2 |
| 20260504213132 | 58 | 215 | 2.6 | 13.0 | 0.00 | 0.00 | 0.00 | 60 | 1015.3 |
| 20260504212631 | 58 | 202 | 3.5 | 13.0 | 0.00 | 0.00 | 0.00 | 60 | 1015.3 |
| 20260504211631 | 59 | 221 | 3.5 | 11.3 | 0.00 | 0.00 | 0.00 | 57 | 1015.6 |
| 20260504211131 | 59 | 255 | 3.5 | 13.0 | 0.00 | 0.00 | 0.00 | 60 | 1015.5 |
| 20260504210631 | 58 | 158 | 2.6 | 13.9 | 0.00 | 0.00 | 0.00 | 59 | 1015.3 |
| 20260504210132 | 58 | 248 | 9.6 | 13.9 | 0.00 | 0.00 | 0.00 | 58 | 1015.2 |
| 20260504205631 | 59 | 205 | 3.5 | 13.9 | 0.00 | 0.00 | 0.00 | 59 | 1015.6 |
| 20260504205131 | 59 | 260 | 5.2 | 15.6 | 0.00 | 0.00 | 0.00 | 59 | 1015.7 |
| 20260504204631 | 59 | 230 | 7.0 | 15.6 | 0.00 | 0.00 | 0.00 | 60 | 1015.5 |
| 20260504204131 | 58 | 211 | 4.3 | 12.2 | 0.00 | 0.00 | 0.00 | 59 | 1015.1 |
| 20260504203131 | 59 | 231 | 6.1 | 13.9 | 0.00 | 0.00 | 0.00 | 57 | 1015.6 |
| 20260504202631 | 59 | 232 | 5.2 | 12.2 | 0.00 | 0.00 | 0.00 | 60 | 1015.7 |
| 20260504202131 | 58 | 218 | 1.7 | 13.0 | 0.00 | 0.00 | 0.00 | 60 | 1015.4 |
| 20260504200130 | 57 | 241 | 11.3 | 13.9 | 0.00 | 0.00 | 0.00 | 61 | 1015.5 |
| 20260504195630 | 57 | 236 | 2.6 | 13.9 | 0.00 | 0.00 | 0.00 | 64 | 1015.6 |
| 20260504194130 | 57 | 172 | 2.6 | 12.2 | 0.00 | 0.00 | 0.00 | 63 | 1015.6 |
| 20260504193631 | 57 | 235 | 2.6 | 12.2 | 0.00 | 0.00 | 0.00 | 64 | 1015.7 |
| 20260504193130 | 56 | 202 | 1.7 | 12.2 | 0.00 | 0.00 | 0.00 | 65 | 1015.5 |
| 20260504192631 | 55 | 240 | 2.6 | 12.2 | 0.00 | 0.00 | 0.00 | 66 | 1015.4 |
| 20260504192130 | 55 | 252 | 6.1 | 12.2 | 0.00 | 0.00 | 0.00 | 68 | 1015.2 |
| 20260504191630 | 55 | 244 | 6.1 | 9.6 | 0.00 | 0.00 | 0.00 | 70 | 1015.2 |
| 20260504191130 | 55 | 232 | 2.6 | 10.4 | 0.00 | 0.00 | 0.00 | 68 | 1015.3 |
| 20260504190130 | 54 | 222 | 4.3 | 12.2 | 0.00 | 0.00 | 0.00 | 73 | 1015.3 |
| 20260504185630 | 53 | 225 | 5.2 | 9.6 | 0.00 | 0.00 | 0.00 | 73 | 1015.4 |
| 20260504184630 | 53 | 242 | 2.6 | 11.3 | 0.00 | 0.00 | 0.00 | 73 | 1015.5 |
| 20260504183129 | 52 | 227 | 7.0 | 10.4 | 0.00 | 0.00 | 0.00 | 75 | 1015.3 |
| 20260504182630 | 53 | 231 | 0.9 | 10.4 | 0.00 | 0.00 | 0.00 | 75 | 1015.4 |
| 20260504182130 | 53 | 238 | 7.0 | 9.6 | 0.00 | 0.00 | 0.00 | 73 | 1015.5 |
| 20260504181629 | 53 | 220 | 4.3 | 11.3 | 0.00 | 0.00 | 0.00 | 74 | 1015.5 |
| 20260504181130 | 53 | 200 | 2.6 | 11.3 | 0.00 | 0.00 | 0.00 | 74 | 1015.4 |
| 20260504180630 | 52 | 214 | 4.3 | 9.6 | 0.00 | 0.00 | 0.00 | 77 | 1015.0 |
| 20260504180129 | 52 | 272 | 6.1 | 10.4 | 0.00 | 0.00 | 0.00 | 76 | 1015.0 |
| 20260504175630 | 52 | 229 | 5.2 | 10.4 | 0.00 | 0.00 | 0.00 | 74 | 1015.3 |
| 20260504175129 | 53 | 236 | 7.8 | 9.6 | 0.00 | 0.00 | 0.00 | 72 | 1015.4 |
| 20260504174630 | 53 | 244 | 2.6 | 10.4 | 0.00 | 0.00 | 0.00 | 73 | 1015.4 |
| 20260504174129 | 52 | 260 | 5.2 | 10.4 | 0.00 | 0.00 | 0.00 | 75 | 1015.2 |
| 20260504173629 | 52 | 230 | 7.0 | 8.7 | 0.00 | 0.00 | 0.00 | 75 | 1015.2 |
| 20260504173129 | 52 | 219 | 0.9 | 9.6 | 0.00 | 0.00 | 0.00 | 76 | 1015.2 |
| 20260504172129 | 51 | 231 | 6.1 | 10.4 | 0.00 | 0.00 | 0.00 | 78 | 1014.8 |
| 20260504171128 | 50 | 232 | 6.1 | 11.3 | 0.00 | 0.00 | 0.00 | 79 | 1014.6 |
| 20260504170629 | 50 | 238 | 7.8 | 11.3 | 0.00 | 0.00 | 0.00 | 80 | 1014.5 |
| 20260504170129 | 50 | 233 | 5.2 | 10.4 | 0.00 | 0.00 | 0.00 | 80 | 1014.4 |
| 20260504160128 | 50 | 202 | 4.3 | 8.7 | 0.00 | 0.00 | 0.00 | 76 | 1014.3 |
| 20260504151127 | 48 | 246 | 0.9 | 9.6 | 0.00 | 0.00 | 0.00 | 87 | 1014.0 |
| 20260504150628 | 47 | 229 | 7.0 | 10.4 | 0.00 | 0.00 | 0.00 | 89 | 1013.5 |
| 20260504150128 | 47 | 225 | 3.5 | 10.4 | 0.00 | 0.00 | 0.00 | 90 | 1013.5 |
| 20260504141126 | 45 | 208 | 4.3 | 9.6 | 0.00 | 0.00 | 0.00 | 91 | 1013.1 |
| 20260504140627 | 45 | 217 | 0.0 | 9.6 | 0.00 | 0.00 | 0.00 | 91 | 1013.2 |
| 20260504140126 | 45 | 226 | 3.5 | 8.7 | 0.00 | 0.00 | 0.00 | 91 | 1013.5 |
| 20260504130626 | 45 | 239 | 3.5 | 9.6 | 0.00 | 0.00 | 0.00 | 92 | 1013.0 |
| 20260504130126 | 45 | 236 | 3.5 | 9.6 | 0.00 | 0.00 | 0.00 | 92 | 1012.9 |
| 20260504120126 | 46 | 242 | 7.0 | 10.4 | 0.00 | 0.00 | 0.00 | 92 | 1013.3 |
| 20260504110625 | 46 | 260 | 3.5 | 12.2 | 0.00 | 0.00 | 0.00 | 91 | 1013.6 |
| 20260504110125 | 46 | 259 | 7.0 | 12.2 | 0.00 | 0.00 | 0.00 | 91 | 1013.6 |
| 20260504100124 | 47 | 243 | 7.0 | 10.4 | 0.00 | 0.00 | 0.00 | 91 | 1013.7 |
| 20260504090124 | 47 | 254 | 6.1 | 8.7 | 0.00 | 0.00 | 0.00 | 89 | 1014.3 |
| 20260504081623 | 47 | 209 | 2.6 | 11.3 | 0.00 | 0.00 | 0.00 | 89 | 1014.7 |
| 20260504081123 | 47 | 250 | 7.0 | 9.6 | 0.00 | 0.00 | 0.00 | 89 | 1014.8 |
| 20260504080623 | 47 | 232 | 6.1 | 7.8 | 0.00 | 0.00 | 0.00 | 89 | 1014.9 |
| 20260504080123 | 47 | 217 | 5.2 | 11.3 | 0.00 | 0.00 | 0.00 | 89 | 1015.1 |
| 20260504070152 | 48 | 227 | 7.8 | 12.2 | 0.00 | 0.00 | 0.00 | 88 | 1014.9 |
| 20260504060122 | 48 | 229 | 1.7 | 8.7 | 0.00 | 0.00 | 0.00 | 89 | 1014.6 |
| 20260504050621 | 48 | 248 | 0.9 | 7.8 | 0.00 | 0.00 | 0.00 | 88 | 1014.9 |
| 20260504050151 | 48 | 246 | 2.6 | 7.8 | 0.00 | 0.00 | 0.00 | 88 | 1014.9 |
| 20260504045621 | 48 | 233 | 4.3 | 10.4 | 0.00 | 0.00 | 0.00 | 88 | 1014.6 |
| 20260504045121 | 48 | 252 | 4.3 | 10.4 | 0.00 | 0.00 | 0.00 | 88 | 1014.5 |
| 20260504044620 | 48 | 203 | 3.5 | 10.4 | 0.00 | 0.00 | 0.00 | 88 | 1014.6 |
| 20260504044120 | 48 | 225 | 0.9 | 9.6 | 0.00 | 0.00 | 0.00 | 87 | 1014.3 |
| 20260504043621 | 48 | 219 | 5.2 | 9.6 | 0.00 | 0.00 | 0.00 | 87 | 1014.2 |
| 20260504043121 | 48 | 244 | 2.6 | 7.8 | 0.00 | 0.00 | 0.00 | 87 | 1014.3 |
| 20260504042621 | 48 | 219 | 5.2 | 7.8 | 0.00 | 0.00 | 0.00 | 87 | 1014.4 |
| 20260504042121 | 48 | 210 | 3.5 | 4.3 | 0.00 | 0.00 | 0.00 | 87 | 1014.2 |
| 20260504041620 | 49 | 229 | 2.6 | 5.2 | 0.00 | 0.00 | 0.00 | 87 | 1014.2 |
| 20260504041120 | 49 | 219 | 3.5 | 5.2 | 0.00 | 0.00 | 0.00 | 87 | 1014.2 |
| 20260504040620 | 48 | 240 | 1.7 | 5.2 | 0.00 | 0.00 | 0.00 | 87 | 1014.0 |
| 20260504040150 | 48 | 232 | 1.7 | 6.1 | 0.00 | 0.00 | 0.00 | 87 | 1014.1 |
| 20260504035120 | 48 | 232 | 5.2 | 7.8 | 0.00 | 0.00 | 0.00 | 86 | 1013.8 |
| 20260504034620 | 49 | 238 | 2.6 | 7.0 | 0.00 | 0.00 | 0.00 | 86 | 1013.6 |
| 20260504034150 | 49 | 268 | 6.1 | 7.8 | 0.00 | 0.00 | 0.00 | 86 | 1014.0 |
| 20260504033650 | 49 | 262 | 1.7 | 8.7 | 0.00 | 0.00 | 0.00 | 86 | 1013.7 |
| 20260504032650 | 49 | 232 | 4.3 | 12.2 | 0.00 | 0.00 | 0.00 | 85 | 1013.6 |
| 20260504032150 | 49 | 223 | 0.9 | 12.2 | 0.00 | 0.00 | 0.00 | 85 | 1013.6 |
| 20260504031650 | 49 | 242 | 2.6 | 8.7 | 0.00 | 0.00 | 0.00 | 86 | 1013.5 |
| 20260504031149 | 49 | 224 | 2.6 | 8.7 | 0.00 | 0.00 | 0.00 | 86 | 1013.4 |
| 20260504030650 | 49 | 218 | 3.5 | 7.8 | 0.00 | 0.00 | 0.00 | 86 | 1013.3 |
| 20260504030150 | 49 | 235 | 3.5 | 9.6 | 0.00 | 0.00 | 0.00 | 86 | 1013.2 |
| 20260504025649 | 49 | 232 | 4.3 | 9.6 | 0.00 | 0.00 | 0.00 | 85 | 1012.5 |
| 20260504025150 | 50 | 234 | 0.0 | 8.7 | 0.00 | 0.00 | 0.00 | 85 | 1012.6 |
| 20260504024649 | 50 | 255 | 1.7 | 8.7 | 0.00 | 0.00 | 0.00 | 84 | 1012.7 |
| 20260504024149 | 50 | 237 | 4.3 | 9.6 | 0.00 | 0.00 | 0.00 | 84 | 1012.8 |
| 20260504023149 | 50 | 234 | 2.6 | 8.7 | 0.00 | 0.00 | 0.00 | 84 | 1012.7 |
| 20260504022649 | 50 | 245 | 7.0 | 11.3 | 0.00 | 0.00 | 0.00 | 83 | 1012.9 |
| 20260504022149 | 50 | 222 | 4.3 | 11.3 | 0.00 | 0.00 | 0.00 | 83 | 1013.0 |
| 20260504021649 | 51 | 240 | 3.5 | 10.4 | 0.00 | 0.00 | 0.00 | 82 | 1012.8 |
| 20260504021149 | 51 | 231 | 4.3 | 10.4 | 0.00 | 0.00 | 0.00 | 82 | 1012.6 |
| 20260504020649 | 51 | 197 | 7.8 | 9.6 | 0.00 | 0.00 | 0.00 | 81 | 1012.6 |
| 20260504020149 | 52 | 227 | 5.2 | 9.6 | 0.00 | 0.00 | 0.00 | 80 | 1012.7 |
| 20260504015649 | 52 | 243 | 5.2 | 11.3 | 0.00 | 0.00 | 0.00 | 79 | 1011.8 |
| 20260504015149 | 52 | 229 | 5.2 | 13.0 | 0.00 | 0.00 | 0.00 | 78 | 1011.9 |
| 20260504014149 | 53 | 212 | 4.3 | 13.0 | 0.00 | 0.00 | 0.00 | 76 | 1012.2 |
| 20260504013649 | 54 | 247 | 8.7 | 12.2 | 0.00 | 0.00 | 0.00 | 76 | 1012.0 |
| 20260504012648 | 54 | 227 | 6.1 | 11.3 | 0.00 | 0.00 | 0.00 | 76 | 1011.7 |
| 20260504012149 | 54 | 265 | 8.7 | 12.2 | 0.00 | 0.00 | 0.00 | 76 | 1011.6 |
| 20260504011648 | 55 | 229 | 4.3 | 12.2 | 0.00 | 0.00 | 0.00 | 76 | 1011.8 |
| 20260504011148 | 55 | 217 | 4.3 | 11.3 | 0.00 | 0.00 | 0.00 | 75 | 1011.7 |
| 20260504010648 | 55 | 236 | 5.2 | 11.3 | 0.00 | 0.00 | 0.00 | 75 | 1011.7 |
| 20260504010148 | 56 | 253 | 9.6 | 9.6 | 0.00 | 0.00 | 0.00 | 74 | 1011.6 |
| 20260504005648 | 56 | 230 | 5.2 | 9.6 | 0.00 | 0.00 | 0.00 | 74 | 1011.0 |
| 20260504004648 | 57 | 234 | 7.8 | 8.7 | 0.00 | 0.00 | 0.00 | 73 | 1011.0 |
| 20260504004148 | 57 | 227 | 7.8 | 8.7 | 0.00 | 0.00 | 0.00 | 73 | 1010.8 |
| 20260504003148 | 58 | 256 | 4.3 | 10.4 | 0.00 | 0.00 | 0.00 | 73 | 1011.2 |
| 20260504002647 | 58 | 229 | 5.2 | 10.4 | 0.00 | 0.00 | 0.00 | 72 | 1011.1 |
| 20260504002147 | 58 | 257 | 1.7 | 8.7 | 0.00 | 0.00 | 0.00 | 72 | 1010.9 |
| 20260504001647 | 58 | 214 | 3.5 | 7.8 | 0.00 | 0.00 | 0.00 | 72 | 1011.0 |
| 20260504001148 | 58 | 215 | 4.3 | 7.8 | 0.00 | 0.00 | 0.00 | 72 | 1011.1 |
| 20260504000647 | 58 | 246 | 3.5 | 7.8 | 0.00 | 0.00 | 0.00 | 72 | 1011.0 |
| 20260503235647 | 59 | 263 | 3.5 | 7.0 | 0.00 | 0.00 | 0.00 | 72 | 1011.6 |
| 20260503235147 | 58 | 255 | 7.0 | 7.0 | 0.00 | 0.00 | 0.00 | 72 | 1011.2 |
| 20260503234147 | 59 | 236 | 3.5 | 7.8 | 0.00 | 0.00 | 0.00 | 72 | 1011.3 |
| 20260503233147 | 59 | 218 | 6.1 | 7.8 | 0.00 | 0.00 | 0.00 | 71 | 1011.4 |
| 20260503232647 | 60 | 244 | 6.1 | 7.8 | 0.00 | 0.00 | 0.00 | 71 | 1011.6 |